Flag for U.S.A. Weather past 2 weeks in Clarksville, Tennessee, U.S.A.

Now
88 °F

Sunny.


Feels Like: 99 °F
Forecast: 76 / 91 °F
Wind: 3 mph from North

Location: Outlaw Field

Current Time: Jul 28, 2015 at 10:37:52 AM

Latest Report: Jul 28, 2015 at 9:52 AM


Visibility: 10 mi

Pressure: 29.98 "Hg

Humidity: 67%

Dew point: 76 °F

Location of ClarksvilleLocation

Historic Weather in Clarksville — Graph

°F

Clarksville temperature yesterday

Maximum temperature yesterday: 91 °F (at 12:52 PM)
Minimum temperature yesterday: 72 °F (at 3:52 AM)
Average temperature yesterday: 81 °F

Past Weeks' High & Low Weather Summary

 TemperatureHumidityPressure
High93 °F (Jul 14, 2:52 PM)100% (Jul 27, 4:52 AM)30.03 "Hg (Jul 27, 4:52 AM)
Low66 °F (Jul 25, 5:59 AM)48% (Jul 25, 2:52 PM)29.65 "Hg (Jul 14, 3:52 PM)
Average80 °F77%29.91 "Hg
* Reported Jul 13 8:52 AM — Jul 28 8:52 AM, Clarksville, Weather by CustomWeather, © 2015

Note: Actual official high and low records may vary slightly from our data, if they occured in-between our weather recording intervals... More about our weather records

Advertising

Clarksville weather history for previous 24 hours

 ConditionsComfort  
Time TempWeatherWind HumidityBarometerVisibility
8:52 AM
Tue, Jul 28
85 °FSunny.3 mph72%29.98 "Hg10 mi
7:52 AM80 °FSunny.No wind85%29.97 "Hg8 mi
6:52 AM75 °FFog.No wind94%29.96 "Hg5 mi
5:52 AM73 °FFog.No wind94%29.96 "Hg5 mi
4:52 AM74 °FClear.No wind94%29.94 "Hg8 mi
3:52 AM75 °FClear.3 mph90%29.93 "Hg7 mi
2:52 AM75 °FPassing clouds.No wind94%29.93 "Hg9 mi
1:52 AM76 °FPassing clouds.3 mph91%29.93 "Hg8 mi
12:52 AM77 °FOvercast.No wind88%29.94 "Hg10 mi
11:52 PM
Mon, Jul 27
78 °FPassing clouds.No wind84%29.95 "Hg10 mi
10:52 PM77 °FClear.No wind85%29.96 "Hg10 mi
9:52 PM76 °FClear.No wind88%29.97 "Hg10 mi
8:52 PM77 °FClear.No wind79%29.94 "Hg10 mi
7:52 PM80 °FSunny.7 mph74%29.92 "Hg10 mi
6:52 PM83 °FScattered clouds.8 mph70%29.92 "Hg10 mi
5:52 PM90 °FScattered clouds.5 mph57%29.90 "Hg10 mi
4:52 PM91 °FBroken clouds.7 mph57%29.90 "Hg9 mi
3:52 PM90 °FScattered clouds.8 mph57%29.92 "Hg10 mi
2:52 PM91 °FPartly sunny.3 mph56%29.93 "Hg10 mi
1:52 PM91 °FPassing clouds.5 mph57%29.95 "Hg10 mi
12:52 PM91 °FPassing clouds.3 mph56%29.96 "Hg10 mi
11:52 AM88 °FPassing clouds.3 mph61%29.96 "Hg10 mi
10:52 AM87 °FPassing clouds.3 mph67%29.99 "Hg10 mi
Weather by CustomWeather, © 2015

See weather overviewHow to use our weather pages